Orbital Elements at Epoch 2459000.5 (2020-May-31.0) TDB
Reference: JPL 19 (heliocentric ecliptic J2000)
Element | Value | Uncertainty (1-sigma) | Units |
e | .2438236787028316 | 1.733e-06 | |
a | 1.322300452093298 | 2.9382e-06 | au |
q | .9998922915134926 | 7.5805e-08 | au |
i | 1.664292003017131 | 1.1586e-05 | deg |
node | 215.841076630315 | 4.1297e-05 | deg |
peri | 22.31288185924259 | 4.8576e-05 | deg |
M | 244.6068674394687 | 0.00082973 | deg |
tp | 2459178.520947818117 (2020-Nov-25.02094782) | 0.0018733 | TDB |
period | 555.3843612045446 1.52 | 0.0018511 5.068e-06 | d yr |
n | .6481997426416807 | 2.1605e-06 | deg/d |
Q | 1.644708612673103 | 3.6546e-06 | au |
|
| | Orbit Determination Parameters
Additional Information
|